This is the latest recevied weather packets stored in our database for station/object XQ6AK-15. If no packets are shown the sender has not sent any weather packets the latest 10 day(s).
| Time | Temp. | Humidity | Pressure | Rain* | Wind** | Luminosity | Snow |
|---|---|---|---|---|---|---|---|
| 1777822520 | 10° C | 99% | 1009.4 hPa | 0 mm | - | 50 W/m² | - |
| 1777822217 | 10° C | 99% | 1009.4 hPa | 0 mm | - | 39 W/m² | - |
| 1777821915 | 10° C | 99% | 1009.1 hPa | 0 mm | - | 59 W/m² | - |
| 1777821612 | 10° C | 99% | 1009.1 hPa | 0 mm | - | 60 W/m² | - |
| 1777821311 | 10° C | 99% | 1009.1 hPa | 0 mm | - | 97 W/m² | - |
| 1777821007 | 10° C | 99% | 1009.1 hPa | 0 mm | - | 85 W/m² | - |
| 1777820703 | 10° C | 98% | 1009 hPa | 0 mm | - | 76 W/m² | - |
| 1777820399 | 10° C | 98% | 1009.3 hPa | 0 mm | - | 75 W/m² | - |
| 1777820097 | 9.44° C | 98% | 1009 hPa | 0 mm | - | 67 W/m² | - |
| 1777819794 | 9.44° C | 98% | 1009.4 hPa | 0 mm | - | 53 W/m² | - |
| 1777819491 | 9.44° C | 98% | 1009.2 hPa | 0 mm | - | 62 W/m² | - |
| 1777819189 | 9.44° C | 99% | 1009.3 hPa | 0 mm | - | 59 W/m² | - |
| 1777818885 | 9.44° C | 99% | 1009.2 hPa | 0 mm | - | 81 W/m² | - |
| 1777818581 | 9.44° C | 99% | 1009 hPa | 0 mm | - | 73 W/m² | - |
| 1777818279 | 9.44° C | 99% | 1009 hPa | 0 mm | - | 73 W/m² | - |
| 1777817975 | 8.89° C | 99% | 1009.1 hPa | 0 mm | - | 96 W/m² | - |
| 1777817673 | 8.89° C | 99% | 1009.2 hPa | 0 mm | - | 72 W/m² | - |
| 1777817369 | 8.89° C | 99% | 1008.9 hPa | 0 mm | - | 77 W/m² | - |
| 1777817061 | 8.89° C | 99% | 1009.2 hPa | 0 mm | - | 69 W/m² | - |
| 1777816756 | 8.89° C | 99% | 1009.1 hPa | 0 mm | - | 79 W/m² | - |
| 1777816455 | 8.89° C | 99% | 1009.2 hPa | 0 mm | - | 61 W/m² | - |
| 1777816152 | 8.89° C | 99% | 1009 hPa | 0 mm | - | 75 W/m² | - |
| 1777815849 | 8.89° C | 99% | 1009.3 hPa | 0 mm | - | 45 W/m² | - |
| 1777815546 | 8.89° C | 99% | 1009.1 hPa | 0 mm | - | 31 W/m² | - |
| 1777815244 | 8.89° C | 99% | 1009.1 hPa | 0 mm | - | 43 W/m² | - |
* Rain latest hour (hover to see other rain measurements)
** Current wind speed in m/s (hover to see current wind gust speed)